EW7714 Weather Reports


time (UTC)temp
F
wind
direction
speed
knots
gust
knots
rain 1hr
in
rain 24hr
in
rain mn
in
humidity
%
barometer
mb
20260510192005 82 255 0.9 1.7 0.00 0.06 0.01 79 1015.3
20260510191605 82 255 0.0 1.7 0.00 0.06 0.01 80 1015.2
20260510191501 82 255 0.9 2.6 0.00 0.06 0.01 79 1015.1
20260510191004 82 255 0.9 3.5 0.00 0.06 0.01 74 1015.2
20260510190006 84 196 0.9 2.6 0.00 0.06 0.01 72 1015.4
20260510185005 83 198 0.9 2.6 0.00 0.06 0.01 73 1015.5
20260510184601 83 193 0.9 4.3 0.00 0.06 0.01 74 1015.4
20260510184005 83 192 1.7 4.3 0.00 0.06 0.01 74 1015.6
20260510183101 81 109 0.9 2.6 0.00 0.06 0.01 75 1015.6
20260510183005 81 109 0.9 2.6 0.00 0.06 0.01 76 1015.8
20260510182005 81 111 0.9 2.6 0.00 0.06 0.01 76 1015.9
20260510181601 81 111 0.9 3.5 0.00 0.06 0.01 75 1015.7
20260510181501 81 111 0.9 3.5 0.00 0.06 0.01 76 1015.7
20260510181005 82 114 0.9 3.5 0.00 0.06 0.01 76 1016.0
20260510180110 81 100 0.9 3.5 0.00 0.06 0.01 76 1016.0
20260510180006 82 114 1.7 3.5 0.00 0.06 0.01 77 1016.1
20260510180002 82 114 1.7 3.5 0.00 0.06 0.01 77 1016.0
20260510175005 80 101 0.9 2.6 0.00 0.06 0.01 79 1016.3
20260510174604 80 93 0.0 5.2 0.00 0.06 0.01 80 1016.2
20260510174005 79 91 0.0 5.2 0.00 0.06 0.01 83 1016.4
20260510173107 78 119 0.0 2.6 0.00 0.06 0.01 82 1016.3
20260510171604 79 66 0.0 3.5 0.00 0.06 0.01 83 1016.4
20260510171500 79 66 0.9 3.5 0.00 0.06 0.01 83 1016.4
20260510171005 79 71 0.9 4.3 0.00 0.06 0.01 81 1016.6
20260510170100 78 266 0.0 4.3 0.00 0.06 0.01 84 1016.6
20260510165005 77 71 0.9 4.3 0.00 0.06 0.01 84 1016.9
20260510164605 77 84 0.0 5.2 0.00 0.06 0.01 85 1016.9
20260510164004 77 86 1.7 6.1 0.00 0.06 0.01 86 1017.1
20260510163100 76 71 1.7 3.5 0.00 0.06 0.01 88 1016.8
20260510163005 76 69 1.7 3.5 0.00 0.06 0.01 88 1017.0
20260510161601 73 330 1.7 3.5 0.00 0.06 0.01 93 1016.6
20260510161004 73 321 1.7 4.3 0.00 0.06 0.01 95 1016.8
20260510160006 72 59 1.7 4.3 0.00 0.06 0.01 99 1016.8
20260510160003 72 59 0.9 4.3 0.00 0.06 0.01 99 1016.6
20260510155005 71 5 0.9 1.7 0.00 0.06 0.01 100 1016.8
20260510154601 70 5 0.0 1.7 0.00 0.06 0.01 100 1016.7
20260510154005 70 360 0.9 2.6 0.00 0.06 0.01 100 1016.9
20260510153059 70 71 0.0 1.7 0.00 0.06 0.01 100 1016.8
20260510153005 70 71 0.9 1.7 0.00 0.06 0.01 100 1016.9
20260510152005 69 73 0.9 3.5 0.00 0.06 0.01 100 1016.9
20260510151608 69 71 0.0 2.6 0.00 0.06 0.01 100 1016.7
20260510151004 69 71 0.9 2.6 0.00 0.06 0.01 100 1016.8
20260510150110 68 73 0.0 2.6 0.00 0.06 0.01 100 1016.8
20260510150002 68 73 0.0 2.6 0.00 0.06 0.01 100 1016.8
20260510145005 68 75 0.9 3.5 0.00 0.06 0.01 100 1017.1
20260510144608 68 76 0.0 2.6 0.00 0.06 0.01 100 1017.1
20260510144004 68 77 0.9 2.6 0.00 0.06 0.01 100 1017.1
20260510143108 68 78 0.0 2.6 0.00 0.06 0.01 100 1017.0
20260510142004 68 77 0.9 2.6 0.00 0.06 0.01 100 1017.0
20260510141559 68 78 0.0 3.5 0.00 0.06 0.01 100 1016.8
20260510140059 67 76 0.9 2.6 0.00 0.06 0.01 100 1016.7
20260510140005 67 76 0.9 2.6 0.00 0.06 0.01 100 1016.8
20260510135004 66 76 0.9 3.5 0.00 0.06 0.01 100 1016.9
20260510134607 66 76 0.0 3.5 0.00 0.06 0.01 100 1016.8
20260510134005 66 77 0.9 3.5 0.00 0.06 0.01 100 1016.8
20260510133059 66 71 0.0 2.6 0.00 0.06 0.01 100 1016.4
20260510133005 66 71 0.9 2.6 0.00 0.06 0.01 100 1016.5
20260510132004 66 70 0.9 2.6 0.00 0.06 0.01 100 1016.7
20260510131559 66 71 0.0 3.5 0.00 0.06 0.01 100 1016.5
20260510130119 65 66 0.0 1.7 0.00 0.06 0.01 100 1016.3
20260510130004 65 66 0.0 1.7 0.00 0.06 0.01 100 1016.4
20260510125004 65 68 0.0 1.7 0.00 0.06 0.01 100 1016.4
20260510124605 65 68 0.0 1.7 0.00 0.06 0.01 100 1016.2
20260510124005 65 68 0.9 1.7 0.00 0.06 0.01 100 1016.2
20260510123100 64 68 0.0 1.7 0.00 0.06 0.01 100 1016.0
20260510122247 64 68 0.0 1.7 0.00 0.06 0.01 100 1016.0
20260510121600 64 68 0.0 0.9 0.00 0.06 0.01 100 1015.7
20260510121005 64 68 0.0 1.7 0.00 0.06 0.01 100 1015.8
20260510120059 64 68 0.0 1.7 0.00 0.06 0.01 100 1015.5
20260510120007 64 68 0.9 1.7 0.00 0.06 0.01 100 1015.6
20260510120002 64 68 0.0 1.7 0.00 0.06 0.01 100 1015.4
20260510115005 64 68 0.0 1.7 0.00 0.06 0.01 100 1015.5
20260510114600 64 68 0.0 1.7 0.00 0.06 0.01 100 1015.2
20260510114504 64 68 0.0 1.7 0.00 0.06 0.01 100 1015.2
20260510114005 64 69 0.0 1.7 0.00 0.06 0.01 100 1015.2
20260510113115 64 69 0.0 1.7 0.00 0.06 0.01 100 1014.9
20260510113005 64 69 0.0 1.7 0.00 0.06 0.01 100 1014.9
20260510112005 64 69 0.0 0.9 0.00 0.06 0.01 100 1014.9
20260510111559 64 69 0.0 1.7 0.00 0.06 0.01 100 1014.7
20260510111004 64 69 0.0 0.9 0.00 0.06 0.01 100 1014.7
20260510110005 64 68 0.0 0.9 0.00 0.06 0.01 100 1014.5
20260510110001 64 68 0.0 0.9 0.00 0.06 0.01 100 1014.4
20260510105004 64 68 0.0 0.9 0.00 0.06 0.01 100 1014.5
20260510104558 64 68 0.0 0.9 0.00 0.06 0.01 100 1014.5
20260510104004 64 68 0.0 0.9 0.00 0.06 0.01 100 1014.5
20260510103100 64 68 0.0 0.9 0.00 0.06 0.01 100 1014.2
20260510103005 64 68 0.0 0.9 0.00 0.06 0.01 100 1014.3
20260510102005 64 68 0.9 1.7 0.00 0.06 0.01 100 1014.1
20260510101602 64 68 0.0 1.7 0.00 0.06 0.01 100 1013.9
20260510101503 63 68 0.0 2.6 0.00 0.06 0.01 100 1013.9
20260510101004 64 68 0.9 2.6 0.00 0.06 0.01 100 1013.9
20260510100107 64 68 0.0 1.7 0.00 0.06 0.01 100 1013.8
20260510100006 64 68 0.0 1.7 0.00 0.06 0.01 100 1013.9
20260510100001 64 68 0.0 1.7 0.00 0.06 0.01 100 1013.8
20260510095004 64 68 0.0 1.7 0.00 0.06 0.01 100 1013.8
20260510094558 64 68 0.0 1.7 0.00 0.06 0.01 100 1013.7
20260510093100 64 68 0.0 0.9 0.00 0.06 0.01 100 1013.6
20260510093005 64 68 0.0 0.9 0.00 0.06 0.01 100 1013.8
20260510092004 64 68 0.0 0.9 0.00 0.06 0.01 100 1013.6
20260510091601 64 68 0.0 0.9 0.00 0.06 0.01 100 1013.4
20260510091005 64 68 0.9 1.7 0.00 0.06 0.01 100 1013.6
20260510090059 64 68 0.0 0.9 0.00 0.06 0.01 100 1013.2
20260510090005 64 68 0.0 0.9 0.00 0.06 0.01 100 1013.4
20260510090002 64 68 0.0 0.9 0.00 0.06 0.01 100 1013.2
20260510085005 64 68 0.0 1.7 0.00 0.06 0.01 100 1013.2
20260510084602 64 68 0.0 1.7 0.00 0.06 0.01 100 1012.9
20260510083959 64 68 0.0 1.7 0.00 0.06 0.01 100 1013.0
20260510083059 64 68 0.0 0.0 0.00 0.06 0.01 100 1012.8
20260510082958 64 68 0.0 0.9 0.00 0.06 0.01 100 1012.9
20260510081556 64 68 0.0 1.7 0.00 0.06 0.01 100 1012.8
20260510080958 64 68 0.0 1.7 0.00 0.06 0.01 100 1012.9
20260510080103 65 68 0.0 3.5 0.00 0.06 0.01 100 1012.7
20260510075000 65 68 0.9 1.7 0.00 0.06 0.01 100 1012.8
20260510074557 65 68 0.0 1.7 0.00 0.06 0.01 100 1012.6
20260510073958 65 68 0.0 1.7 0.00 0.06 0.01 100 1012.8
20260510073114 65 68 0.0 1.7 0.00 0.06 0.01 100 1012.6
20260510072959 65 68 0.0 1.7 0.00 0.06 0.01 100 1012.6
20260510071958 65 68 0.0 0.0 0.00 0.06 0.01 100 1012.9
20260510071556 65 68 0.0 0.0 0.00 0.06 0.01 100 1012.8
20260510070957 65 68 0.0 0.9 0.00 0.06 0.01 100 1013.0
20260510070100 65 68 0.0 0.0 0.00 0.06 0.01 100 1012.8
20260510065958 65 68 0.0 0.0 0.00 0.06 0.01 100 1013.0
20260510064636 65 68 0.0 0.9 0.00 0.06 0.01 100 1012.8
20260510063958 65 68 0.0 0.0 0.00 0.06 0.01 100 1012.9
20260510063056 65 68 0.0 0.0 0.00 0.06 0.01 100 1012.4
20260510062959 65 68 0.0 0.0 0.00 0.06 0.01 100 1012.5
20260510061959 65 68 0.0 2.6 0.00 0.06 0.01 100 1012.5
20260510061556 65 68 0.0 2.6 0.00 0.06 0.01 100 1012.2
20260510060959 65 68 0.0 0.9 0.00 0.06 0.01 100 1012.2
20260510060057 65 68 0.0 0.0 0.01 0.06 0.01 100 1012.5
20260510060006 65 68 0.0 0.0 0.01 0.06 0.01 100 1012.6
20260510055004 65 68 0.0 0.9 0.01 0.06 0.01 100 1012.7
20260510054605 65 68 0.0 1.7 0.01 0.06 0.01 100 1012.6
20260510054004 65 68 0.9 1.7 0.01 0.06 0.01 100 1012.8
20260510053059 65 68 0.9 1.7 0.01 0.06 0.01 100 1012.8
20260510052004 66 68 0.0 1.7 0.01 0.06 0.01 100 1013.0
20260510051604 66 68 0.0 1.7 0.01 0.06 0.01 100 1012.7
20260510051004 66 68 0.9 1.7 0.01 0.06 0.01 100 1012.8
20260510050005 66 67 1.7 5.2 0.00 0.05 0.05 100 1012.5
20260510045004 66 138 0.0 2.6 0.00 0.05 0.05 100 1013.2
20260510044607 66 138 0.0 0.9 0.00 0.05 0.05 100 1013.2
20260510043059 66 138 0.0 0.9 0.00 0.05 0.05 100 1013.6
20260510042005 66 138 0.0 1.7 0.00 0.05 0.05 100 1013.7
20260510041600 66 138 0.0 0.9 0.00 0.05 0.05 100 1013.8
20260510041004 66 138 0.0 0.9 0.00 0.05 0.05 100 1014.0
20260510040100 66 138 0.0 1.7 0.00 0.05 0.05 100 1014.1
20260510040006 66 138 0.0 1.7 0.00 0.05 0.05 100 1014.3
20260510040002 66 138 0.0 1.7 0.00 0.05 0.05 100 1014.2
20260510035006 66 139 0.9 1.7 0.00 0.05 0.05 100 1014.5
20260510034618 66 139 0.0 1.7 0.00 0.05 0.05 100 1014.4
20260510034005 66 136 0.9 1.7 0.00 0.05 0.05 100 1013.7
20260510033105 66 136 0.9 1.7 0.00 0.05 0.05 100 1013.1
20260510033006 66 136 0.9 1.7 0.00 0.05 0.05 100 1013.2
20260510032004 66 136 0.0 1.7 0.00 0.05 0.05 100 1013.4
20260510031601 66 137 0.0 1.7 0.00 0.05 0.05 100 1013.4
20260510031004 66 137 0.0 1.7 0.00 0.05 0.05 100 1013.5
20260510030109 66 137 0.0 0.9 0.00 0.05 0.05 100 1013.6
20260510025000 66 137 0.0 1.7 0.00 0.05 0.05 100 1014.0
20260510024600 67 137 0.0 1.7 0.00 0.05 0.05 100 1013.6
20260510023959 67 137 0.0 1.7 0.00 0.05 0.05 100 1013.7
20260510023058 67 137 0.0 1.7 0.00 0.05 0.05 100 1013.0
20260510023004 67 137 0.0 1.7 0.00 0.05 0.05 100 1013.1
20260510021605 67 135 0.0 0.9 0.00 0.05 0.05 100 1012.8
20260510021000 67 134 0.0 1.7 0.00 0.05 0.05 100 1012.8
20260510020058 67 135 0.0 1.7 0.00 0.05 0.05 100 1012.8
20260510020000 67 135 0.9 1.7 0.00 0.05 0.05 100 1013.0
20260510015002 67 134 0.0 1.7 0.00 0.05 0.05 100 1013.2
20260510014605 67 135 0.0 0.0 0.00 0.05 0.05 100 1013.3
20260510014004 67 135 0.0 0.0 0.00 0.05 0.05 100 1013.4
20260510013126 67 135 0.0 0.0 0.00 0.05 0.05 100 1012.9
20260510012959 67 135 0.0 0.0 0.00 0.05 0.05 100 1013.0
20260510012000 67 135 0.0 1.7 0.00 0.05 0.05 100 1012.8
20260510011558 67 135 0.0 1.7 0.00 0.05 0.05 100 1012.5
20260510011000 67 135 0.9 1.7 0.00 0.05 0.05 100 1012.8
20260510010057 67 135 0.0 1.7 0.00 0.05 0.05 100 1012.7
20260510010002 67 135 0.0 0.0 0.00 0.05 0.05 100 1012.8
20260510004959 67 135 0.0 0.0 0.00 0.05 0.05 100 1012.9
20260510004557 67 135 0.0 0.9 0.00 0.05 0.05 100 1012.9
20260510004002 67 135 0.0 1.7 0.00 0.05 0.05 100 1013.1
20260510003106 67 135 0.0 0.0 0.00 0.05 0.05 100 1013.1
20260510003005 67 135 0.0 0.0 0.00 0.05 0.05 100 1013.3
20260510002000 67 135 0.0 0.0 0.00 0.05 0.05 100 1013.4
20260510001557 67 135 0.0 0.0 0.00 0.05 0.05 100 1013.2
20260510001000 67 135 0.0 0.0 0.00 0.05 0.05 100 1013.1
20260510000126 67 134 0.0 0.0 0.00 0.05 0.05 100 1012.1
20260510000000 67 134 0.0 0.0 0.00 0.05 0.05 100 1012.2
20260509234558 67 134 0.0 1.7 0.01 0.05 0.05 100 1011.5
20260509234004 67 134 0.9 1.7 0.01 0.05 0.05 100 1011.7
20260509233058 67 133 0.0 1.7 0.02 0.05 0.05 100 1011.5
20260509233000 67 133 0.9 1.7 0.02 0.05 0.05 100 1011.7
20260509232000 67 133 0.0 1.7 0.03 0.05 0.05 100 1012.1
20260509231614 67 133 0.0 1.7 0.03 0.05 0.05 100 1012.1
20260509230108 67 133 0.9 2.6 0.04 0.05 0.05 100 1012.1
20260509225959 67 133 0.9 1.7 0.04 0.05 0.05 100 1012.3
20260509225002 67 132 1.7 2.6 0.03 0.04 0.04 100 1012.2
20260509224557 67 131 0.0 2.6 0.03 0.04 0.04 100 1011.0
20260509223110 67 130 0.0 2.6 0.02 0.03 0.03 100 1011.6
20260509223000 67 129 0.9 2.6 0.02 0.03 0.03 100 1011.6
20260509222000 67 78 0.9 2.6 0.01 0.02 0.02 100 1011.4
20260509221619 67 77 0.9 2.6 0.01 0.02 0.02 100 1011.4
20260509221001 67 77 0.9 1.7 0.01 0.02 0.02 100 1011.9
20260509220100 67 77 0.0 1.7 0.01 0.01 0.01 100 1011.9
20260509220000 67 77 0.9 1.7 0.01 0.01 0.01 100 1012.1
20260509215000 67 77 0.9 2.6 0.01 0.01 0.01 100 1012.0
20260509214604 67 76 0.9 2.6 0.01 0.01 0.01 100 1011.9
20260509214004 67 76 0.9 2.6 0.01 0.01 0.01 100 1012.0
20260509213058 67 76 0.0 3.5 0.01 0.01 0.01 100 1011.9
20260509213002 67 76 0.9 3.5 0.01 0.01 0.01 100 1012.0
20260509212000 67 76 1.7 2.6 0.01 0.01 0.01 100 1012.5
20260509211605 67 77 0.9 2.6 0.01 0.01 0.01 100 1011.8
20260509211003 67 21 0.9 1.7 0.01 0.01 0.01 100 1012.4
20260509210100 67 22 0.9 1.7 0.00 0.00 0.00 100 1011.8
20260509205000 67 20 0.9 2.6 0.00 0.43 0.00 100 1011.6
20260509204603 67 20 0.9 2.6 0.00 0.43 0.00 100 1011.1
20260509204005 67 19 0.9 1.7 0.00 0.43 0.00 100 1011.3
20260509203057 67 19 0.0 2.6 0.00 0.43 0.00 100 1011.6
20260509202959 67 19 0.9 2.6 0.00 0.43 0.00 100 1011.8
20260509201959 67 19 0.9 2.6 0.00 0.43 0.00 100 1011.8
20260509201558 67 19 0.0 2.6 0.00 0.43 0.00 100 1011.4
20260509200110 67 13 0.0 1.7 0.00 0.43 0.00 100 1011.3
20260509195005 67 13 0.0 1.7 0.00 0.47 0.00 100 1010.8
20260509194559 67 13 0.0 1.7 0.00 0.47 0.00 100 1010.6
20260509194000 67 13 0.9 1.7 0.00 0.47 0.00 100 1010.8
20260509193058 67 13 0.0 4.3 0.00 0.47 0.00 100 1010.9
20260509193004 67 13 0.9 4.3 0.00 0.47 0.00 100 1011.2